User: anonymous   Login
Location: Columbia
(38.9520°N, 92.3340°W)
Time: 04:57:05
(UTC-06:00)
Language:

Cosmos 2100 Rocket - Orbit

View from above orbital plane
View from above orbital plane
View from above satellite
View from above satellite

Ground track
Ground track

The orbit data is extracted from the following two-line orbital elements,

1 20805U 90083B   15058.84748253  .00000083  00000-0  70323-4 0  9995
2 20805 082.9401 324.7981 0029645 219.0895 208.6839 13.75750852227858
Epoch (UTC): 27 February 2015 20:20:22
Eccentricity: 0.0029645
inclination: 82.9401°
perigee height: 957 km
apogee height: 1001 km
right ascension of ascending node: 324.7981°
argument of perigee: 219.0895°
revolutions per day: 13.75750852
mean anomaly at epoch: 208.6839°
orbit number at epoch: 22785

The dashed part of the orbit path shows where the satellite is in the earth's shadow,  

DLR